Regional Weather Roundup
Issued by NWS Albany, NY

Home | Current Version | Previous Version | Graphics & Text | Print | Product List | Glossary Off
Versions: 1 2 3 4 5 6 7 8 9 10 11 12 13 14 15 16 17 18 19 20 21 22 23 24 25 26 27 28 29 30 31 32 33 34 35 36 37 38 39 40 41 42 43 44 45 46 47 48 49 50

000
ASUS41 KALY 300110
RWRALY

NEW YORK STATE HOURLY WEATHER ROUNDUP
NATIONAL WEATHER SERVICE ALBANY NY
900 PM EDT FRI AUG 29 2014

NOTE: "FAIR" INDICATES FEW OR NO CLOUDS BELOW 12,000 FEET WITH NO
SIGNIFICANT WEATHER AND/OR NO OBSTRUCTIONS TO VISIBILITY.

NYZ032-033-038>043-046>054-057>066-NYZ062>081-300200-
EAST


CITY           SKY/WX    TMP DP  RH WIND       PRES   REMARKS
ALBANY         PTCLDY    64  55  72 CALM      30.20R
GLENS FALLS    CLEAR     60  56  86 CALM      30.19R
POUGHKEEPSIE   PTCLDY    67  56  67 SE3       30.20R
NEWBURGH       PTCLDY    68  57  68 VRB6        N/A
MONTGOMERY     PTCLDY    61  53  75 CALM      30.21R
WHITE PLAINS   CLEAR     63  54  72 SE6       30.23R
ISLIP          MOCLDY    67  54  63 SE5       30.23R
NEW YORK CITY  MOCLDY    70  54  56 SE12      30.22R
CENTRAL PARK   PTCLDY    70  53  54 S8        30.26R
$$

NYZ005>009-017-018-044>046-055-056-300200-
CENTRAL


CITY           SKY/WX    TMP DP  RH WIND       PRES   REMARKS
FULTON         CLEAR     61  57  87 E3        30.16S
SYRACUSE       PTCLDY    65  57  75 CALM      30.16R
ROME           CLEAR     63  56  78 E6        30.19R
ELMIRA         PTCLDY    61  56  83 NW3       30.18R
BINGHAMTON     CLEAR     65  52  62 S6        30.20R
MONTICELLO     MOCLDY    61  54  77 SE5       30.25R
$$

NYZ026>034-041>043-300200-
NORTH


CITY           SKY/WX    TMP DP  RH WIND       PRES   REMARKS
WATERTOWN      PTCLDY    59  53  80 SE3       30.16R
FORT DRUM      NOT AVBL
MASSENA        PTCLDY    61  59  93 CALM      30.16R
SARANAC LAKE   PTCLDY    59  55  87 NE3       30.18R
PLATTSBURGH    CLEAR     58  56  93 CALM      30.17R
$$

NYZ001>004-010>016-019>021-300200-
WEST


CITY           SKY/WX    TMP DP  RH WIND       PRES   REMARKS
NIAGARA FALLS  PTCLDY    64  57  78 E7        30.10F
BUFFALO        PTCLDY    68  56  65 N5        30.11S
DUNKIRK        CLEAR     62  58  86 SE5       30.11S
JAMESTOWN      PTCLDY    64  52  63 CALM      30.15S
WELLSVILLE     CLEAR     64  50  60 S7        30.21R
ROCHESTER      PTCLDY    67  55  65 SE7       30.13S
PENN YAN       CLEAR     61  56  83 CALM      30.17R
$$

             KEY
       WCI = WIND CHILL INDEX
       VSB = VISIBILITY
       HX  = HEAT INDEX
$$



USA.gov is the U.S. government's official web portal to all federal, state and local government web resources and services.